Location: Aalsum
(53.3404°N, 6.0062°E)
Time: 01:27:53
(UTC+00:00)

COSMO-SKYMED 1 - Pass Details

Date: 28 January 2023
Orbit: 621 x 623 km, 97.9° (Epoch: 20 March)

Event Time Altitude Azimuth Distance (km) Brightness Sun altitude
Exits shadow 18:28:24 - 11° (N) 2,960 5.9 -20.3°
Rises 18:28:30 0° 11° (N) 2,922 5.9 -20.3°
Reaches altitude 10° 18:30:45 10° 6° (N) 2,010 5.1 -20.6°
Maximum altitude 18:34:57 49° 292° (WNW) 811 3.5 -21.3°
Drops below altitude 10° 18:39:08 10° 217° (SW) 1,994 5.6 -21.9°
Sets 18:41:22 0° 212° (SSW) 2,896 6.5 -22.2°
